Location: Newark
(7.0858°N, 171.3717°E)
Time: 06:08:55
(UTC+00:00)

Courier 1B Rocket - Pass Details

Date: 30 November 2020
Orbit: 920 x 1202 km, 28.2° (Epoch: 20 January)

Event Time Altitude Azimuth Distance (km) Brightness Sun altitude
Rises 20:52:58 0° 314° (NW) 4,068 7.7 30.9°
Reaches altitude 10° 20:57:05 10° 333° (NNW) 3,074 7.3 31.8°
Maximum altitude 21:01:46 17° 11° (N) 2,531 7.1 32.7°
Drops below altitude 10° 21:06:18 10° 50° (NE) 2,967 7.8 33.7°
Sets 21:10:09 0° 69° (ENE) 3,867 8.6 34.5°
